IRIDIUM 33 DEB, 46971

Orbit data source: Space-Track

IRIDIUM 33 DEB, 46971 is space debris in LEO originally from a launch on Sun, 14 Sep 1997 UTC launched from the Tyuratam Missile And Space Complex (TTMTR). The debris from Iridium 33, an American commercial communications satellite, has been tracked extensively since its accidental collision with the defunct Russian satellite Cosmos 2251 in 2009. This event, occurring at high speed in low Earth orbit (LEO), generated thousands of pieces of space debris, significantly increasing the risk of further collisions. The Iridium 33 debris cloud has impacted space traffic management and orbital debris mitigation strategies, making it a subject of ongoing study in space situational awareness.

Loading next visibility...
Identifier
46971, 1997-051ACD
Orbit
LEO
Country
Flag of USUS
Related business
Manufacturer
Unknown
Mission
Spacecraft
Bus & Motor
Unknown
Mass
Unknown
Launch date (UTC)
1997-09-14 (29 years ago)
Launch vehicle
Unknown
Launch site
Tyuratam Missile And Space Complex (TTMTR)
Object type
Payload
Rocket body
Debris
Shape & HBR
Unknown shape, 0.1 m
Radar Cross Section
Small (<0.1 m²)

Expand to show TLE details & history
Last TLE update: 1 week ago

TLE from 1 week ago
0 IRIDIUM 33 DEB
1 46971U 97051ACD 26096.75456083  .00037501  00000-0  25349-2 0  9991
2 46971  86.3246 278.5928 0005926 244.8430 125.6958 15.06382521659577
Epoch: 2026-04-06T18:06Z
TLE epoch observation values (Epoch: 2026-04-06T18:06:34.055Z)
Latitude
10.51632°
Longitude
172.5893°
Altitude
552.059 km
Speed
7.585 km/s
True Right ascension
18h 37m 05s
True Declination
10° 27' 11"
Sunlit
Object was in daylight at epoch
Visualization orbit readout
Latitude
Unknown
Longitude
Unknown
Altitude
Unknown
Speed
Unknown
Apparent Right ascension
Unknown
Apparent Declination
Unknown
Sunlit
N/A
Visualization observer readout
Local Sidereal Time
20:42:21
Azimuth
Unknown
Elevation
Unknown
Doppler factor
Unknown
Orbital elements
Apogee altitude
548.232 km
Perigee altitude
540.028 km
Semi-major axis
6,922.267 km
Eccentricity
0.00059
Inclination
86.3246°
RAAN
278.5928°
Arg. of periapsis
244.843°
True anomaly
125.75093°
Mean anomaly
125.6958°
Eccentric anomaly
125.72336°
Mean motion
3.76852 °/min
Orbital period
95.53 mins
BSTAR
0.0025349
Loading maneuver chart data...
Computing Atmospheric mass density...

Documentation

Showing up to 5 results
|